Time,TemperatureF,DewpointF,PressureIn,WindDirection,WindDirectionDegrees,WindSpeedMPH,WindSpeedGustMPH,Humidity,HourlyPrecipIn,Conditions,Clouds,dailyrainin,SoftwareType,DateUTC
2013-03-30 00:00:00,46.0,33.7,30.12,West,281,0.0,8.0,62,0.00,,---,0.00,VWS V14.01,2013-03-30 04:00:00,
2013-03-30 00:05:00,46.0,33.7,30.12,WSW,248,2.0,4.0,62,0.00,,---,0.00,VWS V14.01,2013-03-30 04:05:00,
2013-03-30 00:10:00,45.9,33.6,30.12,WNW,295,1.0,6.0,62,0.00,,---,0.00,VWS V14.01,2013-03-30 04:10:00,
2013-03-30 00:15:00,45.8,33.5,30.12,West,273,0.0,6.0,62,0.00,,---,0.00,VWS V14.01,2013-03-30 04:15:00,
2013-03-30 00:20:00,45.8,33.9,30.12,WNW,286,1.0,8.0,63,0.00,,---,0.00,VWS V14.01,2013-03-30 04:20:00,
2013-03-30 00:25:00,45.7,33.8,30.12,WNW,287,2.0,8.0,63,0.00,,---,0.00,VWS V14.01,2013-03-30 04:25:00,
2013-03-30 00:30:00,45.6,33.8,30.12,West,268,1.0,8.0,63,0.00,,---,0.00,VWS V14.01,2013-03-30 04:30:00,
2013-03-30 00:35:00,45.5,33.7,30.12,West,267,0.0,7.0,63,0.00,,---,0.00,VWS V14.01,2013-03-30 04:35:00,
2013-03-30 00:40:00,45.4,34.0,30.12,West,262,0.0,7.0,64,0.00,,---,0.00,VWS V14.01,2013-03-30 04:40:00,
2013-03-30 00:45:00,45.3,33.9,30.12,WNW,284,0.0,9.0,64,0.00,,---,0.00,VWS V14.01,2013-03-30 04:45:00,
2013-03-30 00:50:00,45.2,33.8,30.12,West,265,2.0,9.0,64,0.00,,---,0.00,VWS V14.01,2013-03-30 04:50:00,
2013-03-30 00:55:00,45.0,34.0,30.12,West,268,0.0,9.0,65,0.00,,---,0.00,VWS V14.01,2013-03-30 04:55:00,
2013-03-30 01:00:00,45.0,34.0,30.12,West,268,3.0,9.0,65,0.00,,---,0.00,VWS V14.01,2013-03-30 05:00:00,
2013-03-30 01:05:00,44.8,34.2,30.12,West,270,0.0,2.0,66,0.00,,---,0.00,VWS V14.01,2013-03-30 05:05:00,
2013-03-30 01:10:00,44.7,34.0,30.12,West,260,0.0,5.0,66,0.00,,---,0.00,VWS V14.01,2013-03-30 05:10:00,
2013-03-30 01:15:00,44.6,34.0,30.12,West,262,1.0,6.0,66,0.00,,---,0.00,VWS V14.01,2013-03-30 05:15:00,
2013-03-30 01:20:00,44.5,33.9,30.12,West,263,0.0,6.0,66,0.00,,---,0.00,VWS V14.01,2013-03-30 05:20:00,
2013-03-30 01:25:00,44.4,33.8,30.13,West,263,0.0,6.0,66,0.00,,---,0.00,VWS V14.01,2013-03-30 05:25:00,
2013-03-30 01:30:00,44.3,34.0,30.13,West,263,0.0,6.0,67,0.00,,---,0.00,VWS V14.01,2013-03-30 05:30:00,
2013-03-30 01:35:00,44.1,33.9,30.13,West,263,1.0,1.0,67,0.00,,---,0.00,VWS V14.01,2013-03-30 05:35:00,
2013-03-30 01:40:00,43.9,33.7,30.13,West,263,0.0,2.0,67,0.00,,---,0.00,VWS V14.01,2013-03-30 05:40:00,
2013-03-30 01:45:00,43.7,33.5,30.13,West,263,0.0,2.0,67,0.00,,---,0.00,VWS V14.01,2013-03-30 05:45:00,
2013-03-30 01:50:00,43.5,33.3,30.13,West,263,0.0,2.0,67,0.00,,---,0.00,VWS V14.01,2013-03-30 05:50:00,
2013-03-30 01:55:00,43.3,33.5,30.13,West,263,0.0,2.0,68,0.00,,---,0.00,VWS V14.01,2013-03-30 05:55:00,
2013-03-30 02:00:00,43.0,33.2,30.13,West,263,0.0,2.0,68,0.00,,---,0.00,VWS V14.01,2013-03-30 06:00:00,
2013-03-30 02:05:00,42.8,33.0,30.13,West,263,0.0,3.0,68,0.00,,---,0.00,VWS V14.01,2013-03-30 06:05:00,
2013-03-30 02:10:00,42.6,32.8,30.13,West,263,0.0,3.0,68,0.00,,---,0.00,VWS V14.01,2013-03-30 06:10:00,
2013-03-30 02:15:00,42.5,33.1,30.13,West,263,0.0,3.0,69,0.00,,---,0.00,VWS V14.01,2013-03-30 06:15:00,
2013-03-30 02:20:00,42.3,32.9,30.13,West,263,0.0,3.0,69,0.00,,---,0.00,VWS V14.01,2013-03-30 06:20:00,
2013-03-30 02:25:00,42.1,32.7,30.13,West,263,0.0,3.0,69,0.00,,---,0.00,VWS V14.01,2013-03-30 06:25:00,
2013-03-30 02:30:00,42.0,32.6,30.13,West,263,0.0,3.0,69,0.00,,---,0.00,VWS V14.01,2013-03-30 06:30:00,
2013-03-30 02:35:00,41.9,32.5,30.13,West,263,0.0,0.0,69,0.00,,---,0.00,VWS V14.01,2013-03-30 06:35:00,
2013-03-30 02:40:00,41.8,32.4,30.12,West,263,0.0,0.0,69,0.00,,---,0.00,VWS V14.01,2013-03-30 06:40:00,
2013-03-30 02:45:00,41.6,32.2,30.12,West,263,0.0,2.0,69,0.00,,---,0.00,VWS V14.01,2013-03-30 06:45:00,
2013-03-30 02:50:00,41.6,32.2,30.12,West,263,0.0,2.0,69,0.00,,---,0.00,VWS V14.01,2013-03-30 06:50:00,
2013-03-30 02:55:00,41.4,32.0,30.12,West,263,0.0,2.0,69,0.00,,---,0.00,VWS V14.01,2013-03-30 06:55:00,
2013-03-30 03:00:00,41.4,32.0,30.12,West,263,0.0,2.0,69,0.00,,---,0.00,VWS V14.01,2013-03-30 07:00:00,
2013-03-30 03:05:00,41.3,32.3,30.13,West,263,1.0,1.0,70,0.00,,---,0.00,VWS V14.01,2013-03-30 07:05:00,
2013-03-30 03:10:00,41.2,31.8,30.13,West,263,0.0,3.0,69,0.00,,---,0.00,VWS V14.01,2013-03-30 07:10:00,
2013-03-30 03:15:00,41.1,31.7,30.13,West,263,0.0,3.0,69,0.00,,---,0.00,VWS V14.01,2013-03-30 07:15:00,
2013-03-30 03:20:00,41.1,31.7,30.12,West,263,0.0,3.0,69,0.00,,---,0.00,VWS V14.01,2013-03-30 07:20:00,
2013-03-30 03:25:00,41.0,32.0,30.12,West,263,0.0,3.0,70,0.00,,---,0.00,VWS V14.01,2013-03-30 07:25:00,
2013-03-30 03:30:00,41.0,32.0,30.12,West,263,0.0,3.0,70,0.00,,---,0.00,VWS V14.01,2013-03-30 07:30:00,
2013-03-30 03:35:00,40.9,31.9,30.12,West,263,0.0,0.0,70,0.00,,---,0.00,VWS V14.01,2013-03-30 07:35:00,
2013-03-30 03:40:00,40.8,31.8,30.12,West,263,0.0,0.0,70,0.00,,---,0.00,VWS V14.01,2013-03-30 07:40:00,
2013-03-30 03:45:00,40.7,31.7,30.12,West,263,0.0,0.0,70,0.00,,---,0.00,VWS V14.01,2013-03-30 07:45:00,
2013-03-30 03:50:00,40.6,31.6,30.12,West,263,1.0,1.0,70,0.00,,---,0.00,VWS V14.01,2013-03-30 07:50:00,
2013-03-30 03:55:00,40.5,31.5,30.12,West,263,0.0,2.0,70,0.00,,---,0.00,VWS V14.01,2013-03-30 07:55:00,
2013-03-30 04:00:00,40.3,31.3,30.12,West,263,0.0,2.0,70,0.00,,---,0.00,VWS V14.01,2013-03-30 08:00:00,
2013-03-30 04:05:00,40.2,31.2,30.12,West,263,0.0,0.0,70,0.00,,---,0.00,VWS V14.01,2013-03-30 08:05:00,
2013-03-30 04:10:00,40.1,31.1,30.12,West,263,0.0,0.0,70,0.00,,---,0.00,VWS V14.01,2013-03-30 08:10:00,
2013-03-30 04:15:00,39.9,30.9,30.12,West,263,0.0,0.0,70,0.00,,---,0.00,VWS V14.01,2013-03-30 08:15:00,
2013-03-30 04:20:00,39.7,30.7,30.12,West,263,0.0,0.0,70,0.00,,---,0.00,VWS V14.01,2013-03-30 08:20:00,
2013-03-30 04:25:00,39.5,30.5,30.13,West,263,0.0,1.0,70,0.00,,---,0.00,VWS V14.01,2013-03-30 08:25:00,
2013-03-30 04:30:00,39.4,30.4,30.13,West,263,0.0,1.0,70,0.00,,---,0.00,VWS V14.01,2013-03-30 08:30:00,
2013-03-30 04:35:00,39.3,30.4,30.13,West,263,0.0,0.0,70,0.00,,---,0.00,VWS V14.01,2013-03-30 08:35:00,
2013-03-30 04:40:00,39.2,30.2,30.12,West,263,0.0,0.0,70,0.00,,---,0.00,VWS V14.01,2013-03-30 08:40:00,
2013-03-30 04:45:00,39.1,30.2,30.12,West,263,0.0,1.0,70,0.00,,---,0.00,VWS V14.01,2013-03-30 08:45:00,
2013-03-30 04:50:00,39.1,30.2,30.13,West,263,0.0,3.0,70,0.00,,---,0.00,VWS V14.01,2013-03-30 08:50:00,
2013-03-30 04:55:00,39.1,30.2,30.12,West,263,0.0,3.0,70,0.00,,---,0.00,VWS V14.01,2013-03-30 08:55:00,
2013-03-30 05:00:00,39.1,30.2,30.12,West,263,0.0,3.0,70,0.00,,---,0.00,VWS V14.01,2013-03-30 09:00:00,
2013-03-30 05:05:00,39.1,29.8,30.12,West,263,0.0,0.0,69,0.00,,---,0.00,VWS V14.01,2013-03-30 09:05:00,
2013-03-30 05:10:00,39.1,29.8,30.12,West,263,0.0,1.0,69,0.00,,---,0.00,VWS V14.01,2013-03-30 09:10:00,
2013-03-30 05:15:00,39.1,29.8,30.12,West,263,0.0,1.0,69,0.00,,---,0.00,VWS V14.01,2013-03-30 09:15:00,
2013-03-30 05:20:00,39.1,29.8,30.12,West,263,0.0,1.0,69,0.00,,---,0.00,VWS V14.01,2013-03-30 09:20:00,
2013-03-30 05:25:00,39.1,29.8,30.12,West,263,0.0,1.0,69,0.00,,---,0.00,VWS V14.01,2013-03-30 09:25:00,
2013-03-30 05:30:00,39.0,29.7,30.12,West,263,0.0,1.0,69,0.00,,---,0.00,VWS V14.01,2013-03-30 09:30:00,
2013-03-30 05:34:00,39.0,29.7,30.12,West,263,0.0,2.0,69,0.00,,---,0.00,VWS V14.01,2013-03-30 09:34:00,
2013-03-30 05:39:00,39.1,29.8,30.13,West,263,0.0,2.0,69,0.00,,---,0.00,VWS V14.01,2013-03-30 09:39:00,
2013-03-30 05:44:00,39.1,29.8,30.13,West,263,0.0,2.0,69,0.00,,---,0.00,VWS V14.01,2013-03-30 09:44:00,
2013-03-30 05:49:00,39.1,29.8,30.13,West,263,0.0,2.0,69,0.00,,---,0.00,VWS V14.01,2013-03-30 09:49:00,
2013-03-30 05:54:00,39.1,29.8,30.13,West,263,0.0,2.0,69,0.00,,---,0.00,VWS V14.01,2013-03-30 09:54:00,
2013-03-30 05:59:00,39.1,29.8,30.13,West,263,0.0,2.0,69,0.00,,---,0.00,VWS V14.01,2013-03-30 09:59:00,
2013-03-30 06:04:00,39.0,29.7,30.13,West,263,0.0,0.0,69,0.00,,---,0.00,VWS V14.01,2013-03-30 10:04:00,
2013-03-30 06:09:00,38.9,29.6,30.13,West,263,0.0,1.0,69,0.00,,---,0.00,VWS V14.01,2013-03-30 10:09:00,
2013-03-30 06:14:00,38.8,29.5,30.13,West,263,0.0,1.0,69,0.00,,---,0.00,VWS V14.01,2013-03-30 10:14:00,
2013-03-30 06:19:00,38.7,29.4,30.13,West,263,0.0,2.0,69,0.00,,---,0.00,VWS V14.01,2013-03-30 10:19:00,
2013-03-30 06:24:00,38.7,29.4,30.13,West,263,0.0,2.0,69,0.00,,---,0.00,VWS V14.01,2013-03-30 10:24:00,
2013-03-30 06:29:00,38.6,29.3,30.13,West,263,0.0,2.0,69,0.00,,---,0.00,VWS V14.01,2013-03-30 10:29:00,
2013-03-30 06:34:00,38.5,28.9,30.14,West,263,0.0,0.0,68,0.00,,---,0.00,VWS V14.01,2013-03-30 10:34:00,
2013-03-30 06:39:00,38.4,28.8,30.14,West,263,0.0,0.0,68,0.00,,---,0.00,VWS V14.01,2013-03-30 10:39:00,
2013-03-30 06:44:00,38.4,29.1,30.14,West,263,0.0,0.0,69,0.00,,---,0.00,VWS V14.01,2013-03-30 10:44:00,
2013-03-30 06:49:00,38.2,28.9,30.14,West,263,0.0,0.0,69,0.00,,---,0.00,VWS V14.01,2013-03-30 10:49:00,
2013-03-30 06:54:00,38.0,28.8,30.14,West,263,0.0,0.0,69,0.00,,---,0.00,VWS V14.01,2013-03-30 10:54:00,
2013-03-30 06:59:00,37.8,28.6,30.15,West,263,0.0,0.0,69,0.00,,---,0.00,VWS V14.01,2013-03-30 10:59:00,
2013-03-30 07:04:00,37.7,28.5,30.15,West,263,0.0,0.0,69,0.00,,---,0.00,VWS V14.01,2013-03-30 11:04:00,
2013-03-30 07:09:00,37.5,28.3,30.15,West,263,0.0,0.0,69,0.00,,---,0.00,VWS V14.01,2013-03-30 11:09:00,
2013-03-30 07:14:00,37.4,28.2,30.15,West,263,0.0,0.0,69,0.00,,---,0.00,VWS V14.01,2013-03-30 11:14:00,
2013-03-30 07:19:00,37.4,28.2,30.15,West,263,0.0,0.0,69,0.00,,---,0.00,VWS V14.01,2013-03-30 11:19:00,
2013-03-30 07:24:00,37.5,27.9,30.15,West,263,0.0,1.0,68,0.00,,---,0.00,VWS V14.01,2013-03-30 11:24:00,
2013-03-30 07:29:00,37.6,28.0,30.15,West,263,0.0,1.0,68,0.00,,---,0.00,VWS V14.01,2013-03-30 11:29:00,
2013-03-30 07:34:00,38.0,28.4,30.15,West,263,2.0,3.0,68,0.00,,---,0.00,VWS V14.01,2013-03-30 11:34:00,
2013-03-30 07:39:00,38.4,28.8,30.16,West,263,0.0,3.0,68,0.00,,---,0.00,VWS V14.01,2013-03-30 11:39:00,
2013-03-30 07:44:00,38.9,29.6,30.16,West,263,0.0,3.0,69,0.00,,---,0.00,VWS V14.01,2013-03-30 11:44:00,
2013-03-30 07:49:00,39.5,30.2,30.16,West,280,0.0,3.0,69,0.00,,---,0.00,VWS V14.01,2013-03-30 11:49:00,
2013-03-30 07:54:00,40.1,30.8,30.16,West,269,0.0,4.0,69,0.00,,---,0.00,VWS V14.01,2013-03-30 11:54:00,
2013-03-30 07:59:00,40.7,31.7,30.16,West,271,0.0,5.0,70,0.00,,---,0.00,VWS V14.01,2013-03-30 11:59:00,
2013-03-30 08:04:00,41.4,32.4,30.16,West,261,1.0,6.0,70,0.00,,---,0.00,VWS V14.01,2013-03-30 12:04:00,
2013-03-30 08:09:00,42.1,33.0,30.16,WSW,248,3.0,6.0,70,0.00,,---,0.00,VWS V14.01,2013-03-30 12:09:00,
2013-03-30 08:14:00,42.6,33.5,30.16,West,270,3.0,6.0,70,0.00,,---,0.00,VWS V14.01,2013-03-30 12:14:00,
2013-03-30 08:19:00,43.2,34.1,30.16,West,269,2.0,6.0,70,0.00,,---,0.00,VWS V14.01,2013-03-30 12:19:00,
2013-03-30 08:24:00,43.6,34.5,30.16,West,266,3.0,6.0,70,0.00,,---,0.00,VWS V14.01,2013-03-30 12:24:00,
2013-03-30 08:29:00,44.0,34.5,30.16,WNW,284,0.0,7.0,69,0.00,,---,0.00,VWS V14.01,2013-03-30 12:29:00,
2013-03-30 08:34:00,44.4,34.9,30.16,WNW,287,0.0,5.0,69,0.00,,---,0.00,VWS V14.01,2013-03-30 12:34:00,
2013-03-30 08:39:00,44.8,35.3,30.16,West,266,3.0,6.0,69,0.00,,---,0.00,VWS V14.01,2013-03-30 12:39:00,
2013-03-30 08:44:00,45.1,35.2,30.16,West,259,0.0,6.0,68,0.00,,---,0.00,VWS V14.01,2013-03-30 12:44:00,
2013-03-30 08:49:00,45.7,35.8,30.16,West,259,0.0,6.0,68,0.00,,---,0.00,VWS V14.01,2013-03-30 12:49:00,
2013-03-30 08:54:00,46.1,35.8,30.16,West,267,1.0,6.0,67,0.00,,---,0.00,VWS V14.01,2013-03-30 12:54:00,
2013-03-30 08:59:00,46.7,36.0,30.16,West,267,0.0,6.0,66,0.00,,---,0.00,VWS V14.01,2013-03-30 12:59:00,
2013-03-30 09:04:00,47.2,36.0,30.16,WNW,290,1.0,4.0,65,0.00,,---,0.00,VWS V14.01,2013-03-30 13:04:00,
2013-03-30 09:09:00,47.6,36.0,30.16,WSW,252,0.0,6.0,64,0.00,,---,0.00,VWS V14.01,2013-03-30 13:09:00,
2013-03-30 09:14:00,47.8,36.2,30.16,WSW,257,3.0,6.0,64,0.00,,---,0.00,VWS V14.01,2013-03-30 13:14:00,
2013-03-30 09:19:00,48.2,36.6,30.16,West,272,0.0,6.0,64,0.00,,---,0.00,VWS V14.01,2013-03-30 13:19:00,
2013-03-30 09:24:00,48.6,36.6,30.16,WSW,252,6.0,6.0,63,0.00,,---,0.00,VWS V14.01,2013-03-30 13:24:00,
2013-03-30 09:29:00,49.1,37.1,30.16,West,267,1.0,6.0,63,0.00,,---,0.00,VWS V14.01,2013-03-30 13:29:00,
2013-03-30 09:34:00,49.3,36.4,30.16,WSW,258,0.0,6.0,61,0.00,,---,0.00,VWS V14.01,2013-03-30 13:34:00,
2013-03-30 09:39:00,49.9,37.0,30.16,WSW,257,2.0,6.0,61,0.00,,---,0.00,VWS V14.01,2013-03-30 13:39:00,
2013-03-30 09:44:00,50.4,36.6,30.16,WNW,294,4.0,7.0,59,0.00,,---,0.00,VWS V14.01,2013-03-30 13:44:00,
2013-03-30 09:49:00,50.6,36.4,30.16,WSW,257,7.0,7.0,58,0.00,,---,0.00,VWS V14.01,2013-03-30 13:49:00,
2013-03-30 09:54:00,50.9,36.2,30.16,West,261,0.0,9.0,57,0.00,,---,0.00,VWS V14.01,2013-03-30 13:54:00,
2013-03-30 09:59:00,51.6,37.3,30.16,West,263,0.0,9.0,58,0.00,,---,0.00,VWS V14.01,2013-03-30 13:59:00,
2013-03-30 10:04:00,52.2,36.5,30.16,West,274,0.0,3.0,55,0.00,,---,0.00,VWS V14.01,2013-03-30 14:04:00,
2013-03-30 10:09:00,52.4,36.7,30.16,NW,306,0.0,6.0,55,0.00,,---,0.00,VWS V14.01,2013-03-30 14:09:00,
2013-03-30 10:14:00,52.7,37.0,30.16,WNW,288,1.0,6.0,55,0.00,,---,0.00,VWS V14.01,2013-03-30 14:14:00,
2013-03-30 10:19:00,53.1,36.0,30.16,North,10,2.0,6.0,52,0.00,,---,0.00,VWS V14.01,2013-03-30 14:19:00,
2013-03-30 10:24:00,53.4,36.2,30.16,NE,38,1.0,6.0,52,0.00,,---,0.00,VWS V14.01,2013-03-30 14:24:00,
2013-03-30 10:29:00,53.9,36.7,30.16,NE,38,0.0,6.0,52,0.00,,---,0.00,VWS V14.01,2013-03-30 14:29:00,
2013-03-30 10:34:00,54.4,36.2,30.16,North,350,0.0,3.0,50,0.00,,---,0.00,VWS V14.01,2013-03-30 14:34:00,
2013-03-30 10:39:00,54.8,36.0,30.16,West,259,3.0,4.0,49,0.00,,---,0.00,VWS V14.01,2013-03-30 14:39:00,
2013-03-30 10:44:00,54.9,35.1,30.15,WSW,256,0.0,7.0,47,0.00,,---,0.00,VWS V14.01,2013-03-30 14:44:00,
2013-03-30 10:49:00,55.0,35.7,30.16,West,279,4.0,8.0,48,0.00,,---,0.00,VWS V14.01,2013-03-30 14:49:00,
2013-03-30 10:54:00,55.3,36.0,30.15,West,278,0.0,8.0,48,0.00,,---,0.00,VWS V14.01,2013-03-30 14:54:00,
2013-03-30 10:59:00,55.5,35.6,30.15,WNW,291,1.0,8.0,47,0.00,,---,0.00,VWS V14.01,2013-03-30 14:59:00,
2013-03-30 11:04:00,55.6,35.7,30.15,West,265,1.0,6.0,47,0.00,,---,0.00,VWS V14.01,2013-03-30 15:04:00,
2013-03-30 11:09:00,55.8,34.2,30.15,North,5,0.0,6.0,44,0.00,,---,0.00,VWS V14.01,2013-03-30 15:09:00,
2013-03-30 11:14:00,56.0,33.2,30.15,NW,321,2.0,6.0,42,0.00,,---,0.00,VWS V14.01,2013-03-30 15:14:00,
2013-03-30 11:19:00,56.3,32.9,30.15,NNW,332,3.0,6.0,41,0.00,,---,0.00,VWS V14.01,2013-03-30 15:19:00,
2013-03-30 11:24:00,56.7,32.7,30.14,NNE,19,2.0,6.0,40,0.00,,---,0.00,VWS V14.01,2013-03-30 15:24:00,
2013-03-30 11:29:00,56.8,32.8,30.14,NNE,22,0.0,6.0,40,0.00,,---,0.00,VWS V14.01,2013-03-30 15:29:00,
2013-03-30 11:34:00,57.1,33.0,30.14,NNW,338,0.0,11.0,40,0.00,,---,0.00,VWS V14.01,2013-03-30 15:34:00,
2013-03-30 11:39:00,57.2,33.7,30.14,West,259,0.0,11.0,41,0.00,,---,0.00,VWS V14.01,2013-03-30 15:39:00,
2013-03-30 11:44:00,57.3,33.2,30.14,NNE,14,4.0,11.0,40,0.00,,---,0.00,VWS V14.01,2013-03-30 15:44:00,
2013-03-30 11:49:00,57.2,32.5,30.14,West,262,3.0,14.0,39,0.00,,---,0.00,VWS V14.01,2013-03-30 15:49:00,
2013-03-30 11:54:00,56.6,32.0,30.14,NW,326,1.0,14.0,39,0.00,,---,0.00,VWS V14.01,2013-03-30 15:54:00,
2013-03-30 11:59:00,57.1,33.0,30.14,NW,314,1.0,14.0,40,0.00,,---,0.00,VWS V14.01,2013-03-30 15:59:00,
2013-03-30 12:04:00,57.4,32.0,30.14,WSW,257,6.0,11.0,38,0.00,,---,0.00,VWS V14.01,2013-03-30 16:04:00,
2013-03-30 12:09:00,57.1,31.8,30.13,West,259,6.0,11.0,38,0.00,,---,0.00,VWS V14.01,2013-03-30 16:09:00,
2013-03-30 12:14:00,57.0,31.7,30.13,WNW,300,1.0,12.0,38,0.00,,---,0.00,VWS V14.01,2013-03-30 16:14:00,
2013-03-30 12:19:00,58.0,33.2,30.13,NNW,334,3.0,12.0,39,0.00,,---,0.00,VWS V14.01,2013-03-30 16:19:00,
2013-03-30 12:24:00,58.4,32.2,30.13,NNE,21,4.0,12.0,37,0.00,,---,0.00,VWS V14.01,2013-03-30 16:24:00,
2013-03-30 12:29:00,58.3,31.5,30.13,North,355,3.0,12.0,36,0.00,,---,0.00,VWS V14.01,2013-03-30 16:29:00,
2013-03-30 12:34:00,58.5,32.3,30.13,WNW,300,3.0,13.0,37,0.00,,---,0.00,VWS V14.01,2013-03-30 16:34:00,
2013-03-30 12:39:00,58.6,31.8,30.13,North,360,9.0,13.0,36,0.00,,---,0.00,VWS V14.01,2013-03-30 16:39:00,
2013-03-30 12:44:00,58.3,31.5,30.13,North,350,1.0,13.0,36,0.00,,---,0.00,VWS V14.01,2013-03-30 16:44:00,
2013-03-30 12:49:00,58.5,31.7,30.12,West,260,13.0,15.0,36,0.00,,---,0.00,VWS V14.01,2013-03-30 16:49:00,
2013-03-30 12:54:00,58.1,31.3,30.13,North,5,2.0,15.0,36,0.00,,---,0.00,VWS V14.01,2013-03-30 16:54:00,
2013-03-30 12:59:00,58.7,32.5,30.12,WSW,246,0.0,15.0,37,0.00,,---,0.00,VWS V14.01,2013-03-30 16:59:00,
2013-03-30 13:04:00,59.4,32.5,30.12,North,5,1.0,3.0,36,0.00,,---,0.00,VWS V14.01,2013-03-30 17:04:00,
2013-03-30 13:09:00,59.6,31.9,30.11,WNW,284,5.0,11.0,35,0.00,,---,0.00,VWS V14.01,2013-03-30 17:09:00,
2013-03-30 13:14:00,59.9,32.9,30.11,SW,223,1.0,11.0,36,0.00,,---,0.00,VWS V14.01,2013-03-30 17:14:00,
2013-03-30 13:19:00,60.0,32.3,30.11,North,11,7.0,11.0,35,0.00,,---,0.00,VWS V14.01,2013-03-30 17:19:00,
2013-03-30 13:24:00,59.9,32.9,30.10,NW,323,0.0,11.0,36,0.00,,---,0.00,VWS V14.01,2013-03-30 17:24:00,
2013-03-30 13:29:00,59.8,32.1,30.10,NE,38,0.0,11.0,35,0.00,,---,0.00,VWS V14.01,2013-03-30 17:29:00,
2013-03-30 13:34:00,59.9,32.9,30.10,West,261,0.0,1.0,36,0.00,,---,0.00,VWS V14.01,2013-03-30 17:34:00,
2013-03-30 13:39:00,60.3,33.3,30.10,West,277,1.0,11.0,36,0.00,,---,0.00,VWS V14.01,2013-03-30 17:39:00,
2013-03-30 13:44:00,59.8,32.8,30.10,WSW,248,3.0,11.0,36,0.00,,---,0.00,VWS V14.01,2013-03-30 17:44:00,
2013-03-30 13:49:00,59.2,32.3,30.09,WNW,290,0.0,11.0,36,0.00,,---,0.00,VWS V14.01,2013-03-30 17:49:00,
2013-03-30 13:54:00,59.5,32.5,30.09,NNE,30,2.0,11.0,36,0.00,,---,0.00,VWS V14.01,2013-03-30 17:54:00,
2013-03-30 13:59:00,60.3,33.9,30.09,West,264,2.0,11.0,37,0.00,,---,0.00,VWS V14.01,2013-03-30 17:59:00,
2013-03-30 14:04:00,61.3,33.4,30.09,WSW,246,0.0,7.0,35,0.00,,---,0.00,VWS V14.01,2013-03-30 18:04:00,
2013-03-30 14:09:00,61.3,33.4,30.09,WSW,248,5.0,9.0,35,0.00,,---,0.00,VWS V14.01,2013-03-30 18:09:00,
2013-03-30 14:14:00,61.2,34.1,30.09,NW,307,2.0,13.0,36,0.00,,---,0.00,VWS V14.01,2013-03-30 18:14:00,
2013-03-30 14:19:00,60.9,32.4,30.08,WSW,245,3.0,13.0,34,0.00,,---,0.00,VWS V14.01,2013-03-30 18:19:00,
2013-03-30 14:24:00,60.3,31.8,30.08,WSW,238,2.0,13.0,34,0.00,,---,0.00,VWS V14.01,2013-03-30 18:24:00,
2013-03-30 14:29:00,60.7,32.9,30.08,West,265,11.0,17.0,35,0.00,,---,0.00,VWS V14.01,2013-03-30 18:29:00,
2013-03-30 14:34:00,60.8,33.0,30.08,WSW,249,11.0,11.0,35,0.00,,---,0.00,VWS V14.01,2013-03-30 18:34:00,
2013-03-30 14:39:00,61.0,32.5,30.08,SSW,201,0.0,11.0,34,0.00,,---,0.00,VWS V14.01,2013-03-30 18:39:00,
2013-03-30 14:44:00,61.7,33.8,30.08,NW,320,1.0,3.0,35,0.00,,---,0.00,VWS V14.01,2013-03-30 18:44:00,
2013-03-30 14:49:00,61.8,33.2,30.07,NNE,22,0.0,7.0,34,0.00,,---,0.00,VWS V14.01,2013-03-30 18:49:00,
2013-03-30 14:54:00,61.5,32.9,30.07,NNW,333,3.0,11.0,34,0.00,,---,0.00,VWS V14.01,2013-03-30 18:54:00,
2013-03-30 14:59:00,61.2,32.6,30.08,West,281,0.0,11.0,34,0.00,,---,0.00,VWS V14.01,2013-03-30 18:59:00,
2013-03-30 15:04:00,61.4,32.8,30.07,West,264,0.0,4.0,34,0.00,,---,0.00,VWS V14.01,2013-03-30 19:04:00,
2013-03-30 15:09:00,61.7,33.1,30.07,West,279,0.0,5.0,34,0.00,,---,0.00,VWS V14.01,2013-03-30 19:09:00,
2013-03-30 15:14:00,62.2,33.5,30.07,West,273,6.0,11.0,34,0.00,,---,0.00,VWS V14.01,2013-03-30 19:14:00,
2013-03-30 15:19:00,62.2,31.2,30.07,WNW,296,8.0,15.0,31,0.00,,---,0.00,VWS V14.01,2013-03-30 19:19:00,
2013-03-30 15:24:00,61.6,32.2,30.07,West,261,3.0,15.0,33,0.00,,---,0.00,VWS V14.01,2013-03-30 19:24:00,
2013-03-30 15:29:00,61.8,32.4,30.07,West,264,0.0,15.0,33,0.00,,---,0.00,VWS V14.01,2013-03-30 19:29:00,
2013-03-30 15:34:00,62.5,33.0,30.07,WSW,239,1.0,6.0,33,0.00,,---,0.00,VWS V14.01,2013-03-30 19:34:00,
2013-03-30 15:39:00,62.9,32.6,30.07,SW,234,1.0,9.0,32,0.00,,---,0.00,VWS V14.01,2013-03-30 19:39:00,
2013-03-30 15:44:00,63.0,31.9,30.07,SW,236,0.0,9.0,31,0.00,,---,0.00,VWS V14.01,2013-03-30 19:44:00,
2013-03-30 15:49:00,63.0,31.9,30.07,West,269,0.0,9.0,31,0.00,,---,0.00,VWS V14.01,2013-03-30 19:49:00,
2013-03-30 15:54:00,63.1,32.0,30.07,North,9,0.0,10.0,31,0.00,,---,0.00,VWS V14.01,2013-03-30 19:54:00,
2013-03-30 15:59:00,62.8,31.7,30.07,North,350,0.0,10.0,31,0.00,,---,0.00,VWS V14.01,2013-03-30 19:59:00,
2013-03-30 16:04:00,62.0,30.2,30.06,NNW,341,1.0,5.0,30,0.00,,---,0.00,VWS V14.01,2013-03-30 20:04:00,
2013-03-30 16:09:00,62.0,31.0,30.07,North,355,0.0,9.0,31,0.00,,---,0.00,VWS V14.01,2013-03-30 20:09:00,
2013-03-30 16:14:00,61.5,30.6,30.07,WSW,242,1.0,10.0,31,0.00,,---,0.00,VWS V14.01,2013-03-30 20:14:00,
2013-03-30 16:19:00,61.1,29.5,30.07,SW,231,3.0,10.0,30,0.00,,---,0.00,VWS V14.01,2013-03-30 20:19:00,
2013-03-30 16:24:00,60.2,30.2,30.07,West,271,0.0,10.0,32,0.00,,---,0.00,VWS V14.01,2013-03-30 20:24:00,
2013-03-30 16:29:00,60.0,30.1,30.06,WNW,288,1.0,10.0,32,0.00,,---,0.00,VWS V14.01,2013-03-30 20:29:00,
2013-03-30 16:34:00,59.7,29.8,30.06,West,272,0.0,3.0,32,0.00,,---,0.00,VWS V14.01,2013-03-30 20:34:00,
2013-03-30 16:39:00,59.6,30.5,30.06,West,272,0.0,4.0,33,0.00,,---,0.00,VWS V14.01,2013-03-30 20:39:00,
2013-03-30 16:44:00,60.4,30.4,30.06,NNW,333,4.0,4.0,32,0.00,,---,0.00,VWS V14.01,2013-03-30 20:44:00,
2013-03-30 16:49:00,60.7,29.9,30.06,WSW,244,2.0,9.0,31,0.00,,---,0.00,VWS V14.01,2013-03-30 20:49:00,
2013-03-30 16:54:00,61.2,30.4,30.06,WSW,241,4.0,9.0,31,0.00,,---,0.00,VWS V14.01,2013-03-30 20:54:00,
2013-03-30 16:59:00,61.6,29.9,30.06,WNW,288,0.0,9.0,30,0.00,,---,0.00,VWS V14.01,2013-03-30 20:59:00,
2013-03-30 17:04:00,61.6,29.9,30.06,WSW,242,2.0,5.0,30,0.00,,---,0.00,VWS V14.01,2013-03-30 21:04:00,
2013-03-30 17:09:00,61.1,29.5,30.06,West,272,1.0,11.0,30,0.00,,---,0.00,VWS V14.01,2013-03-30 21:09:00,
2013-03-30 17:14:00,60.7,29.9,30.06,NW,311,1.0,11.0,31,0.00,,---,0.00,VWS V14.01,2013-03-30 21:14:00,
2013-03-30 17:19:00,60.6,29.8,30.06,WNW,289,0.0,11.0,31,0.00,,---,0.00,VWS V14.01,2013-03-30 21:19:00,
2013-03-30 17:24:00,60.7,29.9,30.06,NNW,333,2.0,11.0,31,0.00,,---,0.00,VWS V14.01,2013-03-30 21:24:00,
2013-03-30 17:29:00,60.9,30.1,30.06,West,265,0.0,11.0,31,0.00,,---,0.00,VWS V14.01,2013-03-30 21:29:00,
2013-03-30 17:34:00,61.0,30.2,30.06,NNW,330,0.0,4.0,31,0.00,,---,0.00,VWS V14.01,2013-03-30 21:34:00,
2013-03-30 17:39:00,60.9,29.3,30.06,NNE,20,5.0,7.0,30,0.00,,---,0.00,VWS V14.01,2013-03-30 21:39:00,
2013-03-30 17:44:00,60.8,30.0,30.06,WSW,246,0.0,7.0,31,0.00,,---,0.00,VWS V14.01,2013-03-30 21:44:00,
2013-03-30 17:49:00,60.8,30.0,30.06,NNW,331,2.0,9.0,31,0.00,,---,0.00,VWS V14.01,2013-03-30 21:49:00,
2013-03-30 17:54:00,60.7,29.9,30.07,WSW,244,0.0,9.0,31,0.00,,---,0.00,VWS V14.01,2013-03-30 21:54:00,
2013-03-30 17:59:00,60.6,30.6,30.07,WNW,302,0.0,9.0,32,0.00,,---,0.00,VWS V14.01,2013-03-30 21:59:00,
2013-03-30 18:04:00,60.6,29.8,30.07,NNE,17,0.0,2.0,31,0.00,,---,0.00,VWS V14.01,2013-03-30 22:04:00,
2013-03-30 18:09:00,60.7,29.9,30.07,NNE,12,0.0,4.0,31,0.00,,---,0.00,VWS V14.01,2013-03-30 22:09:00,
2013-03-30 18:14:00,60.6,30.6,30.07,West,279,4.0,8.0,32,0.00,,---,0.00,VWS V14.01,2013-03-30 22:14:00,
2013-03-30 18:19:00,60.3,29.6,30.07,WSW,246,3.0,10.0,31,0.00,,---,0.00,VWS V14.01,2013-03-30 22:19:00,
2013-03-30 18:24:00,60.0,30.1,30.07,WSW,242,3.0,10.0,32,0.00,,---,0.00,VWS V14.01,2013-03-30 22:24:00,
2013-03-30 18:29:00,59.7,29.8,30.07,West,265,0.0,11.0,32,0.00,,---,0.00,VWS V14.01,2013-03-30 22:29:00,
2013-03-30 18:34:00,59.5,29.6,30.07,West,264,0.0,1.0,32,0.00,,---,0.00,VWS V14.01,2013-03-30 22:34:00,
2013-03-30 18:39:00,59.4,29.6,30.07,NNW,336,0.0,4.0,32,0.00,,---,0.00,VWS V14.01,2013-03-30 22:39:00,
2013-03-30 18:44:00,59.2,29.4,30.07,West,267,1.0,4.0,32,0.00,,---,0.00,VWS V14.01,2013-03-30 22:44:00,
2013-03-30 18:49:00,59.0,29.2,30.07,West,269,0.0,4.0,32,0.00,,---,0.00,VWS V14.01,2013-03-30 22:49:00,
2013-03-30 18:54:00,58.9,29.1,30.08,West,269,1.0,4.0,32,0.00,,---,0.00,VWS V14.01,2013-03-30 22:54:00,
2013-03-30 18:59:00,57.6,34.7,30.08,South,188,3.0,8.0,42,0.00,,---,0.00,VWS V14.01,2013-03-30 22:59:00,
2013-03-30 19:04:00,55.1,35.8,30.08,South,183,2.0,5.0,48,0.00,,---,0.00,VWS V14.01,2013-03-30 23:04:00,
2013-03-30 19:09:00,53.6,35.4,30.08,South,186,0.0,7.0,50,0.00,,---,0.00,VWS V14.01,2013-03-30 23:09:00,
2013-03-30 19:14:00,52.7,34.6,30.08,South,190,4.0,7.0,50,0.00,,---,0.00,VWS V14.01,2013-03-30 23:14:00,
2013-03-30 19:19:00,52.0,35.9,30.09,South,171,7.0,7.0,54,0.00,,---,0.00,VWS V14.01,2013-03-30 23:19:00,
2013-03-30 19:24:00,51.3,36.2,30.09,SW,227,2.0,7.0,56,0.00,,---,0.00,VWS V14.01,2013-03-30 23:24:00,
2013-03-30 19:29:00,50.9,36.7,30.09,SW,217,2.0,7.0,58,0.00,,---,0.00,VWS V14.01,2013-03-30 23:29:00,
2013-03-30 19:34:00,50.3,37.0,30.09,South,190,0.0,3.0,60,0.00,,---,0.00,VWS V14.01,2013-03-30 23:34:00,
2013-03-30 19:39:00,50.0,36.7,30.09,South,190,0.0,3.0,60,0.00,,---,0.00,VWS V14.01,2013-03-30 23:39:00,
2013-03-30 19:44:00,49.7,36.4,30.09,SSW,199,0.0,4.0,60,0.00,,---,0.00,VWS V14.01,2013-03-30 23:44:00,
2013-03-30 19:49:00,49.4,36.5,30.09,SSW,198,0.0,4.0,61,0.00,,---,0.00,VWS V14.01,2013-03-30 23:49:00,
2013-03-30 19:54:00,49.2,36.8,30.09,SSW,199,2.0,4.0,62,0.00,,---,0.00,VWS V14.01,2013-03-30 23:54:00,
2013-03-30 19:59:00,49.1,37.1,30.09,SSW,199,0.0,4.0,63,0.00,,---,0.00,VWS V14.01,2013-03-30 23:59:00,
2013-03-30 20:04:00,49.0,37.0,30.09,SSW,199,0.0,1.0,63,0.00,,---,0.00,VWS V14.01,2013-03-31 00:04:00,
2013-03-30 20:09:00,48.8,37.2,30.10,SSW,199,0.0,1.0,64,0.00,,---,0.00,VWS V14.01,2013-03-31 00:09:00,
2013-03-30 20:14:00,48.6,37.0,30.10,SSW,199,1.0,2.0,64,0.00,,---,0.00,VWS V14.01,2013-03-31 00:14:00,
2013-03-30 20:19:00,48.4,37.2,30.10,SSW,198,0.0,2.0,65,0.00,,---,0.00,VWS V14.01,2013-03-31 00:19:00,
2013-03-30 20:24:00,48.2,37.4,30.10,SSW,199,0.0,2.0,66,0.00,,---,0.00,VWS V14.01,2013-03-31 00:24:00,
2013-03-30 20:29:00,48.0,37.2,30.11,SSW,199,0.0,2.0,66,0.00,,---,0.00,VWS V14.01,2013-03-31 00:29:00,
2013-03-30 20:34:00,47.8,37.0,30.11,SSW,199,0.0,0.0,66,0.00,,---,0.00,VWS V14.01,2013-03-31 00:34:00,
2013-03-30 20:39:00,47.7,36.9,30.11,SSW,199,0.0,3.0,66,0.00,,---,0.00,VWS V14.01,2013-03-31 00:39:00,
2013-03-30 20:44:00,47.6,36.8,30.11,SSW,199,0.0,3.0,66,0.00,,---,0.00,VWS V14.01,2013-03-31 00:44:00,
2013-03-30 20:49:00,47.5,37.1,30.11,SSW,198,2.0,3.0,67,0.00,,---,0.00,VWS V14.01,2013-03-31 00:49:00,
2013-03-30 20:54:00,47.4,37.0,30.11,SSW,199,0.0,3.0,67,0.00,,---,0.00,VWS V14.01,2013-03-31 00:54:00,
2013-03-30 20:59:00,47.2,36.8,30.11,SSW,199,1.0,3.0,67,0.00,,---,0.00,VWS V14.01,2013-03-31 00:59:00,
2013-03-30 21:04:00,47.1,36.7,30.11,SSW,198,0.0,0.0,67,0.00,,---,0.00,VWS V14.01,2013-03-31 01:04:00,
2013-03-30 21:09:00,47.0,36.6,30.11,SSW,198,0.0,0.0,67,0.00,,---,0.00,VWS V14.01,2013-03-31 01:09:00,
2013-03-30 21:14:00,47.0,36.6,30.11,SSW,199,0.0,0.0,67,0.00,,---,0.00,VWS V14.01,2013-03-31 01:14:00,
2013-03-30 21:19:00,46.9,36.5,30.11,SSW,199,0.0,0.0,67,0.00,,---,0.00,VWS V14.01,2013-03-31 01:19:00,
2013-03-30 21:24:00,46.8,36.8,30.11,SSW,199,0.0,0.0,68,0.00,,---,0.00,VWS V14.01,2013-03-31 01:24:00,
2013-03-30 21:29:00,46.7,36.7,30.11,SSW,199,0.0,0.0,68,0.00,,---,0.00,VWS V14.01,2013-03-31 01:29:00,
2013-03-30 21:34:00,46.5,36.5,30.11,SSW,199,0.0,0.0,68,0.00,,---,0.00,VWS V14.01,2013-03-31 01:34:00,
2013-03-30 21:39:00,46.4,36.4,30.11,SSW,199,0.0,0.0,68,0.00,,---,0.00,VWS V14.01,2013-03-31 01:39:00,
2013-03-30 21:44:00,46.2,36.2,30.11,SSW,199,0.0,0.0,68,0.00,,---,0.00,VWS V14.01,2013-03-31 01:44:00,
2013-03-30 21:48:00,46.0,36.0,30.11,SSW,199,0.0,0.0,68,0.00,,---,0.00,VWS V14.01,2013-03-31 01:48:00,
2013-03-30 21:54:00,45.8,35.8,30.11,SSW,199,0.0,0.0,68,0.00,,---,0.00,VWS V14.01,2013-03-31 01:54:00,
2013-03-30 21:59:00,45.6,35.7,30.11,SSW,199,0.0,0.0,68,0.00,,---,0.00,VWS V14.01,2013-03-31 01:59:00,
2013-03-30 22:04:00,45.5,35.9,30.11,SSW,199,0.0,0.0,69,0.00,,---,0.00,VWS V14.01,2013-03-31 02:04:00,
2013-03-30 22:09:00,45.3,35.7,30.11,SSW,199,0.0,0.0,69,0.00,,---,0.00,VWS V14.01,2013-03-31 02:09:00,
2013-03-30 22:14:00,45.0,35.5,30.11,SSW,199,0.0,0.0,69,0.00,,---,0.00,VWS V14.01,2013-03-31 02:14:00,
2013-03-30 22:19:00,45.0,35.5,30.12,SSW,199,0.0,0.0,69,0.00,,---,0.00,VWS V14.01,2013-03-31 02:19:00,
2013-03-30 22:24:00,44.8,35.3,30.12,SSW,199,0.0,0.0,69,0.00,,---,0.00,VWS V14.01,2013-03-31 02:24:00,
2013-03-30 22:29:00,44.6,35.1,30.12,SSW,199,0.0,0.0,69,0.00,,---,0.00,VWS V14.01,2013-03-31 02:29:00,
2013-03-30 22:34:00,44.5,35.0,30.12,SSW,199,0.0,0.0,69,0.00,,---,0.00,VWS V14.01,2013-03-31 02:34:00,
2013-03-30 22:38:00,44.5,35.0,30.12,SSW,199,0.0,0.0,69,0.00,,---,0.00,VWS V14.01,2013-03-31 02:38:00,
2013-03-30 22:43:00,44.4,34.9,30.12,SSW,199,0.0,0.0,69,0.00,,---,0.00,VWS V14.01,2013-03-31 02:43:00,
2013-03-30 22:49:00,44.2,34.7,30.12,SSW,199,0.0,0.0,69,0.00,,---,0.00,VWS V14.01,2013-03-31 02:49:00,
2013-03-30 22:54:00,44.0,34.5,30.11,SSW,199,0.0,0.0,69,0.00,,---,0.00,VWS V14.01,2013-03-31 02:54:00,
2013-03-30 22:59:00,43.9,34.4,30.12,SSW,199,0.0,0.0,69,0.00,,---,0.00,VWS V14.01,2013-03-31 02:59:00,
2013-03-30 23:04:00,43.7,34.2,30.12,SSW,199,0.0,0.0,69,0.00,,---,0.00,VWS V14.01,2013-03-31 03:04:00,
2013-03-30 23:09:00,43.6,34.1,30.12,SSW,199,0.0,0.0,69,0.00,,---,0.00,VWS V14.01,2013-03-31 03:09:00,
2013-03-30 23:14:00,43.5,34.0,30.12,SSW,198,0.0,0.0,69,0.00,,---,0.00,VWS V14.01,2013-03-31 03:14:00,
2013-03-30 23:19:00,43.4,34.3,30.12,SSW,199,0.0,0.0,70,0.00,,---,0.00,VWS V14.01,2013-03-31 03:19:00,
2013-03-30 23:24:00,43.2,34.1,30.12,SSW,198,0.0,0.0,70,0.00,,---,0.00,VWS V14.01,2013-03-31 03:24:00,
2013-03-30 23:29:00,43.1,34.0,30.12,SSW,199,0.0,0.0,70,0.00,,---,0.00,VWS V14.01,2013-03-31 03:29:00,
2013-03-30 23:34:00,43.0,33.9,30.13,SSW,199,0.0,0.0,70,0.00,,---,0.00,VWS V14.01,2013-03-31 03:34:00,
2013-03-30 23:39:00,42.9,33.8,30.12,SSW,199,0.0,0.0,70,0.00,,---,0.00,VWS V14.01,2013-03-31 03:39:00,
2013-03-30 23:44:00,42.7,33.6,30.12,SSW,199,0.0,0.0,70,0.00,,---,0.00,VWS V14.01,2013-03-31 03:44:00,
2013-03-30 23:49:00,42.6,33.5,30.12,SSW,199,0.0,0.0,70,0.00,,---,0.00,VWS V14.01,2013-03-31 03:49:00,
2013-03-30 23:54:00,42.5,33.4,30.13,SSW,199,0.0,0.0,70,0.00,,---,0.00,VWS V14.01,2013-03-31 03:54:00,
2013-03-30 23:59:00,42.3,33.2,30.13,SSW,199,0.0,0.0,70,0.00,,---,0.00,VWS V14.01,2013-03-31 03:59:00,